EW0920 Weather Reports


time (UTC)temp
F
wind
direction
speed
knots
gust
knots
rain 1hr
in
rain 24hr
in
rain mn
in
humidity
%
barometer
mb
20260504050334 50 348 0.0 0.0 0.00 0.00 0.00 81 1016.2
20260504045832 49 22 0.9 0.9 0.00 0.00 0.00 79 1016.4
20260504045326 49 0 0.0 0.0 0.00 0.00 0.00 79 1016.4
20260504044824 50 5 0.0 0.0 0.00 0.00 0.00 80 1016.5
20260504044321 50 5 0.0 0.0 0.00 0.00 0.00 78 1016.5
20260504043818 50 355 0.0 0.0 0.00 0.00 0.00 78 1016.5
20260504043315 50 5 0.0 0.0 0.00 0.00 0.00 77 1016.4
20260504042813 50 5 0.0 0.0 0.00 0.00 0.00 77 1016.1
20260504042309 50 358 0.0 0.0 0.00 0.00 0.00 77 1016.4
20260504041805 50 358 0.0 0.0 0.00 0.00 0.00 78 1016.3
20260504041301 50 358 0.0 0.0 0.00 0.00 0.00 77 1016.1
20260504040758 50 358 0.0 0.0 0.00 0.00 0.00 76 1016.4
20260504040255 50 358 0.0 0.0 0.00 0.00 0.00 76 1016.3
20260504035751 50 359 0.0 0.0 0.00 0.00 0.00 76 1016.3
20260504035248 50 359 0.0 0.0 0.00 0.00 0.00 75 1016.3
20260504034745 50 359 0.0 0.0 0.00 0.00 0.00 77 1016.4
20260504034243 50 359 0.0 0.0 0.00 0.00 0.00 75 1016.3
20260504033740 50 359 0.0 0.0 0.00 0.00 0.00 76 1016.4
20260504033238 50 358 0.0 0.0 0.00 0.00 0.00 74 1016.6
20260504032734 50 358 0.0 0.0 0.00 0.00 0.00 75 1016.6
20260504032231 50 354 0.0 0.0 0.00 0.00 0.00 73 1016.5
20260504031728 51 354 0.0 0.0 0.00 0.00 0.00 74 1016.7
20260504031226 51 354 0.0 0.0 0.00 0.00 0.00 72 1016.8
20260504030721 51 354 0.0 0.0 0.00 0.00 0.00 72 1016.8
20260504030219 51 354 0.0 0.0 0.00 0.00 0.00 72 1016.8
20260504025715 51 352 0.0 0.0 0.00 0.00 0.00 72 1016.8
20260504025212 51 355 0.0 0.0 0.00 0.00 0.00 70 1017.0
20260504024709 51 355 0.0 0.0 0.00 0.00 0.00 70 1017.1
20260504024205 51 355 0.0 0.0 0.00 0.00 0.00 70 1016.8
20260504023702 51 352 0.0 0.0 0.00 0.00 0.00 68 1016.7
20260504023158 51 350 0.0 0.0 0.00 0.00 0.00 70 1017.1
20260504022654 51 37 0.9 0.9 0.00 0.00 0.00 69 1017.0
20260504022150 51 346 0.0 0.9 0.00 0.00 0.00 70 1017.1
20260504021649 51 343 0.0 0.9 0.00 0.00 0.00 68 1017.0
20260504021145 51 2 0.0 0.0 0.00 0.00 0.00 66 1017.1
20260504020642 52 2 0.0 0.0 0.00 0.00 0.00 64 1016.7
20260504020138 52 2 0.0 0.0 0.00 0.00 0.00 63 1016.7
20260504015635 52 2 0.0 0.0 0.00 0.00 0.00 64 1016.7
20260504015131 52 2 0.0 0.0 0.00 0.00 0.00 62 1016.6
20260504014627 52 2 0.0 0.0 0.00 0.00 0.00 61 1016.8
20260504014124 53 2 0.0 0.0 0.00 0.00 0.00 60 1016.7
20260504013622 53 2 0.0 0.0 0.00 0.00 0.00 61 1016.4
20260504013119 53 2 0.0 0.0 0.00 0.00 0.00 61 1016.5
20260504012616 53 2 0.0 0.0 0.00 0.00 0.00 61 1016.5
20260504012114 54 2 0.0 0.0 0.00 0.00 0.00 60 1016.4
20260504011610 54 2 0.0 0.0 0.00 0.00 0.00 58 1016.3
20260504011107 54 2 0.0 0.0 0.00 0.00 0.00 58 1016.2
20260504010603 55 3 0.0 0.0 0.00 0.00 0.00 56 1016.3
20260504010059 55 3 0.0 0.0 0.00 0.00 0.00 60 1016.3
20260504005555 55 3 0.0 0.0 0.00 0.00 0.00 54 1016.5
20260504005053 55 3 0.0 0.0 0.00 0.00 0.00 53 1016.3
20260504004551 56 3 0.0 0.0 0.00 0.00 0.00 59 1016.6
20260504004047 56 3 0.0 0.0 0.00 0.00 0.00 57 1016.5
20260504003543 56 3 0.0 0.0 0.00 0.00 0.00 54 1016.6
20260504003040 57 2 0.0 0.0 0.00 0.00 0.00 48 1016.5
20260504002537 57 6 0.0 0.0 0.00 0.00 0.00 49 1016.6
20260504002035 58 30 0.0 0.9 0.00 0.00 0.00 45 1016.7
20260504001533 57 34 0.0 0.0 0.00 0.00 0.00 45 1016.7
20260504001028 58 329 0.9 2.6 0.00 0.00 0.00 43 1017.0
20260504000525 58 36 0.9 1.7 0.00 0.00 0.00 43 1016.8
20260504000022 59 16 0.0 0.9 0.00 0.00 0.00 41 1017.0
20260503235520 59 1 0.0 0.0 0.00 0.00 0.00 41 1016.5
20260503235012 59 9 0.0 0.0 0.00 0.00 0.00 41 1016.7
20260503234509 59 308 0.9 0.9 0.00 0.00 0.00 43 1016.6
20260503234008 59 116 0.9 1.7 0.00 0.00 0.00 41 1016.5
20260503233504 59 88 0.9 2.6 0.00 0.00 0.00 39 1016.6
20260503233000 59 355 0.9 1.7 0.00 0.00 0.00 39 1016.5
20260503232457 59 10 0.0 1.7 0.00 0.00 0.00 41 1016.6
20260503231955 60 273 0.9 1.7 0.00 0.00 0.00 38 1016.5
20260503231452 60 340 1.7 1.7 0.00 0.00 0.00 39 1016.4
20260503230948 60 341 0.0 0.0 0.00 0.00 0.00 40 1016.6
20260503230445 60 102 0.9 2.6 0.00 0.00 0.00 40 1016.5
20260503225943 60 91 1.7 2.6 0.00 0.00 0.00 40 1016.3
20260503225439 60 14 0.0 0.9 0.00 0.00 0.00 39 1016.5
20260503224935 60 351 0.9 1.7 0.00 0.00 0.00 39 1016.6
20260503224432 60 9 2.6 3.5 0.00 0.00 0.00 38 1016.7
20260503223930 60 19 0.0 1.7 0.00 0.00 0.00 39 1016.5
20260503223427 60 298 0.9 3.5 0.00 0.00 0.00 38 1017.1
20260503222922 61 151 2.6 3.5 0.00 0.00 0.00 37 1017.1
20260503222421 61 6 1.7 2.6 0.00 0.00 0.00 37 1017.1
20260503221919 61 278 0.0 1.7 0.00 0.00 0.00 37 1016.8
20260503221417 61 46 0.9 1.7 0.00 0.00 0.00 37 1017.1
20260503220914 61 305 0.9 6.1 0.00 0.00 0.00 38 1017.2
20260503220410 62 48 0.0 2.6 0.00 0.00 0.00 38 1017.3
20260503215908 62 350 0.9 1.7 0.00 0.00 0.00 37 1017.2
20260503215404 62 57 0.9 5.2 0.00 0.00 0.00 36 1017.2
20260503214902 62 206 0.9 0.9 0.00 0.00 0.00 38 1017.3
20260503214359 63 17 1.7 2.6 0.00 0.00 0.00 35 1017.1
20260503213856 64 4 0.0 1.7 0.00 0.00 0.00 37 1017.2
20260503213354 64 179 0.9 0.9 0.00 0.00 0.00 38 1017.2
20260503212850 63 352 0.0 1.7 0.00 0.00 0.00 35 1017.1
20260503212349 63 90 1.7 7.8 0.00 0.00 0.00 35 1017.2
20260503211845 64 61 2.6 2.6 0.00 0.00 0.00 35 1017.1
20260503211342 63 67 0.9 3.5 0.00 0.00 0.00 36 1017.3
20260503210837 63 90 1.7 3.5 0.00 0.00 0.00 36 1017.2
20260503210335 63 139 1.7 2.6 0.00 0.00 0.00 37 1017.2
20260503205830 63 90 0.9 2.6 0.00 0.00 0.00 36 1017.0
20260503205327 63 7 1.7 2.6 0.00 0.00 0.00 34 1017.3
20260503204823 64 1 1.7 3.5 0.00 0.00 0.00 35 1017.1
20260503204321 64 9 6.1 7.8 0.00 0.00 0.00 33 1017.2
20260503203818 64 343 0.9 0.9 0.00 0.00 0.00 37 1017.4
20260503203315 63 300 0.9 2.6 0.00 0.00 0.00 34 1017.3
20260503202812 63 17 2.6 5.2 0.00 0.00 0.00 35 1017.3
20260503202310 64 4 1.7 2.6 0.00 0.00 0.00 34 1017.5
20260503201808 64 271 0.9 3.5 0.00 0.00 0.00 35 1017.5
20260503201305 62 12 0.9 3.5 0.00 0.00 0.00 36 1017.6
20260503200802 61 109 1.7 5.2 0.00 0.00 0.00 35 1017.6
20260503200258 63 84 0.9 3.5 0.00 0.00 0.00 35 1018.0
20260503195755 62 167 1.7 7.0 0.00 0.00 0.00 35 1017.8
20260503195252 63 78 0.0 2.6 0.00 0.00 0.00 34 1017.9
20260503194749 63 28 2.6 2.6 0.00 0.00 0.00 36 1018.0
20260503194245 63 105 0.9 6.1 0.00 0.00 0.00 38 1018.2
20260503193741 62 324 2.6 3.5 0.00 0.00 0.00 36 1018.6
20260503193237 63 343 0.9 3.5 0.00 0.00 0.00 35 1018.6
20260503192733 64 79 0.9 0.9 0.00 0.00 0.00 38 1018.6
20260503192228 64 328 2.6 2.6 0.00 0.00 0.00 32 1018.5
20260503191726 64 126 0.9 1.7 0.00 0.00 0.00 35 1018.7
20260503191222 64 0 2.6 2.6 0.00 0.00 0.00 34 1018.8
20260503190720 64 316 0.9 2.6 0.00 0.00 0.00 37 1018.9
20260503190216 64 231 1.7 2.6 0.00 0.00 0.00 39 1018.9
20260503185714 64 167 1.7 5.2 0.00 0.00 0.00 35 1019.2
20260503185209 62 121 1.7 3.5 0.00 0.00 0.00 34 1019.2
20260503184703 62 30 0.0 2.6 0.00 0.00 0.00 35 1019.5
20260503184200 63 19 3.5 6.1 0.00 0.00 0.00 36 1019.4
20260503183656 62 341 1.7 1.7 0.00 0.00 0.00 36 1019.4
20260503183154 63 2 0.9 2.6 0.00 0.00 0.00 39 1019.6
20260503182652 64 181 0.9 2.6 0.00 0.00 0.00 33 1019.6
20260503182150 62 334 0.9 2.6 0.00 0.00 0.00 37 1019.7
20260503181646 62 173 3.5 5.2 0.00 0.00 0.00 35 1019.7
20260503181143 62 328 1.7 1.7 0.00 0.00 0.00 35 1019.9
20260503180640 59 348 1.7 1.7 0.00 0.00 0.00 37 1020.0
20260503180138 61 118 1.7 3.5 0.00 0.00 0.00 36 1020.0
20260503175635 61 85 1.7 3.5 0.00 0.00 0.00 36 1020.0
20260503175132 61 220 1.7 5.2 0.00 0.00 0.00 38 1020.2
20260503174629 61 124 0.9 1.7 0.00 0.00 0.00 38 1020.2
20260503174126 61 110 3.5 3.5 0.00 0.00 0.00 35 1020.4
20260503173621 62 321 0.9 1.7 0.00 0.00 0.00 43 1020.3
20260503173117 63 13 0.9 3.5 0.00 0.00 0.00 35 1020.5
20260503172614 62 281 0.9 2.6 0.00 0.00 0.00 39 1020.4
20260503172111 60 118 2.6 5.2 0.00 0.00 0.00 36 1020.7
20260503171603 61 262 0.9 5.2 0.00 0.00 0.00 39 1020.6
20260503171100 61 293 1.7 2.6 0.00 0.00 0.00 36 1020.8
20260503170556 61 335 1.7 3.5 0.00 0.00 0.00 36 1020.7
20260503150943 54 331 0.0 2.6 0.00 0.00 0.00 43 1022.0
20260503150439 54 16 1.7 5.2 0.00 0.00 0.00 42 1022.1
20260503131332 44 22 0.0 0.9 0.00 0.00 0.00 74 1022.3
20260503130830 42 12 1.7 1.7 0.00 0.00 0.00 75 1022.5
20260503130327 42 33 0.0 0.9 0.00 0.00 0.00 79 1022.6
20260503110721 29 8 0.0 0.0 0.00 0.00 0.00 99 1021.5
20260503110218 29 8 0.0 0.0 0.00 0.00 0.00 99 1021.5
20260503100144 29 7 0.0 0.0 0.00 0.00 0.00 99 1020.7
20260503081533 30 4 0.0 0.0 0.00 0.00 0.00 98 1020.7
20260503081030 30 4 0.0 0.0 0.00 0.00 0.00 98 1020.6
20260503080526 30 4 0.0 0.0 0.00 0.00 0.00 98 1020.7
20260503072500 30 357 0.0 0.0 0.00 0.00 0.00 98 1020.2
20260503071957 30 354 0.0 0.0 0.00 0.00 0.00 98 1020.3
20260503071454 30 354 0.0 0.0 0.00 0.00 0.00 98 1020.3
20260503070950 30 354 0.0 0.0 0.00 0.00 0.00 98 1020.4
20260503070447 31 354 0.0 0.0 0.00 0.00 0.00 98 1020.4
20260503054900 32 354 0.0 0.0 0.00 0.00 0.00 97 1020.6
20260503054356 32 354 0.0 0.0 0.00 0.00 0.00 97 1020.6
20260503053854 32 355 0.0 0.0 0.00 0.00 0.00 97 1020.7
20260503053352 33 355 0.0 0.0 0.00 0.00 0.00 97 1020.4
20260503052848 33 355 0.0 0.0 0.00 0.00 0.00 97 1020.8
20260503052345 33 355 0.0 0.0 0.00 0.00 0.00 96 1020.6
20260503051841 33 355 0.0 0.0 0.00 0.00 0.00 96 1020.6